Location: Haulchin
(50.3172°N, 3.4360°E)
Time: 11:39:58
(UTC+00:00)

COSMOS 2406 - Pass Details

Date: 23 May 2024
Orbit: 843 x 862 km, 71.0° (Epoch: 14 June)

Event Time Altitude Azimuth Distance (km) Brightness Sun altitude
Exits shadow 01:19:32 24° 219° (SW) 1,730 4.2 -15.9°
Maximum altitude 01:23:09 74° 301° (WNW) 901 3.3 -15.7°
Drops below altitude 10° 01:28:56 10° 27° (NNE) 2,509 7.1 -15.3°
Sets 01:31:25 0° 29° (NNE) 3,448 8.3 -15.1°
